星链-30901 (STARLINK-30901 )

导读 | 星芒AI

STARLINK-30901 是 SpaceX Starlink 卫星互联网项目中的一颗低轨卫星,属于第三代(Gen3)星群。该卫星于2024年发射,旨在为全球用户提供高速、低延迟的互联网服务。它运行在约540公里高的近地轨道,配备先进通信设备和激光链路,以提升网络性能和卫星间数据传输效率。作为 Starlink 计划的重要组成部分,STARLINK-30901 有助于扩大覆盖范围,改善偏远地区的网络接入,并支持未来星链的扩展与升级。

基本信息
目录编号:
58351
目录名称:
STARLINK-30901
国际标识:
2023-177A
轨道中心:
EARTH
卫星名称:
星链-30901
卫星全名:
星链-30901 (STARLINK-30901 )
卫星状态:
已陨落 最后检测时间 2024-05-02
发射日期:
2023-11-18 UTC
国别 :
美国 (US)
星等 :
--
轨道信息
数据来源 国际轨道数据
星历时间: 2024-05-02T13:14:08+0800
轨道信息已过期548天
半长轴: 6545.852km
偏心率: 0.000875
轨道倾角: 42.969°
近地点辐角 284.481°
升交点赤经 330.991°
平近点角 206.632°
近地点: 161.989km
远地点: 173.445km
周期: 87.843分钟
每日圈数: 16.392814
详细信息
固有亮度:
5
最大亮度:
0.3
卫星平台:
Starlink v2.0 mini
覆盖范围:
全球
运营商:
太空探索技术公司
运营商所在国:
美国
制造商(研发单位):
太空探索技术公司
制造商所在国:
美国
使用方式:
暂无
卫星简介
星链(Starlink)计划是由太空探索技术公司(SpaceX)提出的一个巨型低轨卫星互联网星座项目,计划在2019年至2024年间在太空搭建由约1.2万颗卫星组成的“星链”网络,其中1584颗将部署在地球上空550千米处的近地轨道,并从2020年开始工作。该卫星已陨落。